| time (UTC) | temp C | wind direction | speed KPH | gust KPH | rain 1hr cm | rain 24hr cm | rain mn cm | humidity % | barometer mb |
| 20260504184508 | 25 | 178 | 8.0 | 11.3 | 0.00 | 0.00 | 0.00 | 31 | 1016.6 |
| 20260504184004 | 25 | 207 | 4.8 | 14.5 | 0.00 | 0.00 | 0.00 | 33 | 1016.6 |
| 20260504183504 | 25 | 165 | 8.0 | 14.5 | 0.00 | 0.00 | 0.00 | 33 | 1016.7 |
| 20260504183014 | 25 | 210 | 1.6 | 8.0 | 0.00 | 0.00 | 0.00 | 34 | 1016.7 |
| 20260504182504 | 25 | 277 | 4.8 | 9.7 | 0.00 | 0.00 | 0.00 | 33 | 1016.7 |
| 20260504182003 | 25 | 155 | 4.8 | 12.9 | 0.00 | 0.00 | 0.00 | 36 | 1016.8 |
| 20260504181518 | 24 | 100 | 3.2 | 12.9 | 0.00 | 0.00 | 0.00 | 35 | 1017.0 |
| 20260504181007 | 24 | 113 | 3.2 | 11.3 | 0.00 | 0.00 | 0.00 | 36 | 1016.9 |
| 20260504180508 | 24 | 103 | 4.8 | 11.3 | 0.00 | 0.00 | 0.00 | 33 | 1016.9 |
| 20260504180023 | 24 | 129 | 1.6 | 11.3 | 0.00 | 0.00 | 0.00 | 35 | 1017.0 |
| 20260504175508 | 24 | 149 | 3.2 | 9.7 | 0.00 | 0.00 | 0.00 | 36 | 1017.1 |
| 20260504175003 | 24 | 155 | 4.8 | 14.5 | 0.00 | 0.00 | 0.00 | 34 | 1017.1 |
| 20260504174504 | 24 | 138 | 9.7 | 14.5 | 0.00 | 0.00 | 0.00 | 34 | 1017.1 |
| 20260504174003 | 23 | 125 | 3.2 | 6.4 | 0.00 | 0.00 | 0.00 | 34 | 1017.2 |
| 20260504173503 | 24 | 116 | 3.2 | 8.0 | 0.00 | 0.00 | 0.00 | 35 | 1017.3 |
| 20260504173009 | 23 | 155 | 4.8 | 8.0 | 0.00 | 0.00 | 0.00 | 35 | 1017.3 |
| 20260504172504 | 23 | 319 | 1.6 | 14.5 | 0.00 | 0.00 | 0.00 | 35 | 1017.3 |
| 20260504172004 | 23 | 165 | 4.8 | 14.5 | 0.00 | 0.00 | 0.00 | 34 | 1017.4 |
| 20260504171514 | 23 | 141 | 3.2 | 11.3 | 0.00 | 0.00 | 0.00 | 37 | 1017.6 |
| 20260504171006 | 23 | 27 | 3.2 | 12.9 | 0.00 | 0.00 | 0.00 | 35 | 1017.6 |
| 20260504170509 | 23 | 342 | 4.8 | 12.9 | 0.00 | 0.00 | 0.00 | 37 | 1017.7 |
| 20260504151003 | 22 | 44 | 3.2 | 9.7 | 0.00 | 0.00 | 0.00 | 39 | 1018.5 |
| 20260504150507 | 22 | 13 | 4.8 | 12.9 | 0.00 | 0.00 | 0.00 | 39 | 1018.5 |
| 20260504141005 | 21 | 88 | 4.8 | 11.3 | 0.00 | 0.00 | 0.00 | 51 | 1018.6 |
| 20260504140502 | 20 | 84 | 3.2 | 6.4 | 0.00 | 0.00 | 0.00 | 53 | 1018.6 |
| 20260504130503 | 15 | 121 | 0.0 | 0.0 | 0.00 | 0.00 | 0.00 | 79 | 1018.5 |
| 20260504110502 | 7 | 54 | 0.0 | 0.0 | 0.00 | 0.00 | 0.00 | 96 | 1017.9 |
| 20260504100502 | 7 | 297 | 0.0 | 0.0 | 0.00 | 0.00 | 0.00 | 95 | 1018.0 |
| 20260504081523 | 8 | 36 | 0.0 | 0.0 | 0.00 | 0.00 | 0.00 | 94 | 1018.1 |
| 20260504081008 | 8 | 36 | 0.0 | 0.0 | 0.00 | 0.00 | 0.00 | 95 | 1018.1 |
| 20260504080508 | 8 | 36 | 0.0 | 0.0 | 0.00 | 0.00 | 0.00 | 95 | 1018.2 |
| 20260504050504 | 10 | 74 | 0.0 | 0.0 | 0.00 | 0.00 | 0.00 | 92 | 1018.8 |
| 20260504050020 | 10 | 74 | 0.0 | 0.0 | 0.00 | 0.00 | 0.00 | 93 | 1018.9 |
| 20260504045506 | 10 | 74 | 0.0 | 0.0 | 0.00 | 0.00 | 0.00 | 93 | 1018.8 |
| 20260504045007 | 10 | 74 | 0.0 | 0.0 | 0.00 | 0.00 | 0.00 | 92 | 1018.9 |
| 20260504044528 | 10 | 74 | 0.0 | 0.0 | 0.00 | 0.00 | 0.00 | 92 | 1018.8 |
| 20260504044008 | 10 | 74 | 0.0 | 0.0 | 0.00 | 0.00 | 0.00 | 92 | 1018.8 |
| 20260504043508 | 10 | 74 | 0.0 | 0.0 | 0.00 | 0.00 | 0.00 | 92 | 1018.7 |
| 20260504043028 | 10 | 74 | 0.0 | 0.0 | 0.00 | 0.00 | 0.00 | 91 | 1018.7 |
| 20260504042510 | 10 | 74 | 0.0 | 0.0 | 0.00 | 0.00 | 0.00 | 91 | 1018.7 |
| 20260504042010 | 11 | 74 | 0.0 | 0.0 | 0.00 | 0.00 | 0.00 | 91 | 1018.7 |
| 20260504041516 | 11 | 74 | 0.0 | 0.0 | 0.00 | 0.00 | 0.00 | 91 | 1018.7 |
| 20260504041004 | 11 | 74 | 0.0 | 0.0 | 0.00 | 0.00 | 0.00 | 92 | 1018.8 |
| 20260504040503 | 11 | 74 | 0.0 | 0.0 | 0.00 | 0.00 | 0.00 | 92 | 1018.7 |
| 20260504040020 | 11 | 74 | 0.0 | 0.0 | 0.00 | 0.00 | 0.00 | 91 | 1018.8 |
| 20260504035510 | 11 | 74 | 0.0 | 0.0 | 0.00 | 0.00 | 0.00 | 90 | 1018.7 |
| 20260504035008 | 11 | 74 | 0.0 | 0.0 | 0.00 | 0.00 | 0.00 | 89 | 1018.6 |
| 20260504034522 | 11 | 74 | 0.0 | 0.0 | 0.00 | 0.00 | 0.00 | 90 | 1018.7 |
| 20260504034011 | 11 | 74 | 0.0 | 0.0 | 0.00 | 0.00 | 0.00 | 89 | 1018.7 |
| 20260504033508 | 11 | 74 | 0.0 | 0.0 | 0.00 | 0.00 | 0.00 | 89 | 1018.8 |
| 20260504033029 | 11 | 74 | 0.0 | 0.0 | 0.00 | 0.00 | 0.00 | 88 | 1018.8 |
| 20260504032513 | 11 | 74 | 0.0 | 0.0 | 0.00 | 0.00 | 0.00 | 89 | 1018.7 |
| 20260504032011 | 11 | 74 | 0.0 | 0.0 | 0.00 | 0.00 | 0.00 | 89 | 1018.7 |
| 20260504031530 | 12 | 74 | 0.0 | 0.0 | 0.00 | 0.00 | 0.00 | 88 | 1018.8 |
| 20260504031008 | 12 | 74 | 0.0 | 0.0 | 0.00 | 0.00 | 0.00 | 88 | 1018.8 |
| 20260504030504 | 12 | 74 | 0.0 | 0.0 | 0.00 | 0.00 | 0.00 | 88 | 1018.8 |
| 20260504030021 | 12 | 74 | 0.0 | 0.0 | 0.00 | 0.00 | 0.00 | 86 | 1018.7 |
| 20260504025505 | 12 | 74 | 0.0 | 0.0 | 0.00 | 0.00 | 0.00 | 87 | 1018.7 |
| 20260504025005 | 12 | 74 | 0.0 | 1.6 | 0.00 | 0.00 | 0.00 | 87 | 1018.8 |
| 20260504024520 | 12 | 74 | 0.0 | 3.2 | 0.00 | 0.00 | 0.00 | 84 | 1018.8 |
| 20260504024008 | 12 | 74 | 1.6 | 3.2 | 0.00 | 0.00 | 0.00 | 82 | 1018.7 |
| 20260504023507 | 12 | 74 | 1.6 | 3.2 | 0.00 | 0.00 | 0.00 | 79 | 1018.7 |
| 20260504023026 | 13 | 49 | 0.0 | 0.0 | 0.00 | 0.00 | 0.00 | 78 | 1018.7 |
| 20260504022509 | 13 | 344 | 0.0 | 0.0 | 0.00 | 0.00 | 0.00 | 77 | 1018.7 |
| 20260504022010 | 13 | 344 | 0.0 | 0.0 | 0.00 | 0.00 | 0.00 | 75 | 1018.6 |
| 20260504021528 | 14 | 344 | 0.0 | 0.0 | 0.00 | 0.00 | 0.00 | 75 | 1018.6 |
| 20260504021009 | 14 | 344 | 0.0 | 0.0 | 0.00 | 0.00 | 0.00 | 74 | 1018.6 |
| 20260504020511 | 14 | 344 | 0.0 | 0.0 | 0.00 | 0.00 | 0.00 | 70 | 1018.5 |
| 20260504020027 | 14 | 344 | 0.0 | 0.0 | 0.00 | 0.00 | 0.00 | 70 | 1018.5 |
| 20260504015505 | 14 | 344 | 0.0 | 0.0 | 0.00 | 0.00 | 0.00 | 70 | 1018.5 |
| 20260504015006 | 15 | 344 | 0.0 | 0.0 | 0.00 | 0.00 | 0.00 | 71 | 1018.4 |
| 20260504014520 | 15 | 344 | 0.0 | 0.0 | 0.00 | 0.00 | 0.00 | 71 | 1018.3 |
| 20260504014002 | 15 | 344 | 0.0 | 0.0 | 0.00 | 0.00 | 0.00 | 71 | 1018.1 |
| 20260504013503 | 15 | 344 | 0.0 | 0.0 | 0.00 | 0.00 | 0.00 | 67 | 1018.0 |
| 20260504013006 | 15 | 344 | 0.0 | 0.0 | 0.00 | 0.00 | 0.00 | 66 | 1017.9 |
| 20260504012503 | 16 | 344 | 0.0 | 0.0 | 0.00 | 0.00 | 0.00 | 65 | 1017.8 |
| 20260504012003 | 16 | 344 | 0.0 | 0.0 | 0.00 | 0.00 | 0.00 | 65 | 1017.9 |
| 20260504011508 | 17 | 344 | 0.0 | 0.0 | 0.00 | 0.00 | 0.00 | 63 | 1017.8 |
| 20260504011004 | 17 | 344 | 0.0 | 3.2 | 0.00 | 0.00 | 0.00 | 58 | 1017.8 |
| 20260504010505 | 17 | 344 | 0.0 | 3.2 | 0.00 | 0.00 | 0.00 | 57 | 1017.9 |
| 20260504010012 | 17 | 313 | 0.0 | 4.8 | 0.00 | 0.00 | 0.00 | 59 | 1017.8 |
| 20260504005504 | 18 | 311 | 0.0 | 4.8 | 0.00 | 0.00 | 0.00 | 56 | 1017.8 |
| 20260504005005 | 18 | 318 | 1.6 | 3.2 | 0.00 | 0.00 | 0.00 | 53 | 1017.7 |
| 20260504004518 | 18 | 302 | 0.0 | 3.2 | 0.00 | 0.00 | 0.00 | 52 | 1017.7 |
| 20260504004008 | 18 | 309 | 0.0 | 3.2 | 0.00 | 0.00 | 0.00 | 51 | 1017.7 |
| 20260504003507 | 18 | 320 | 0.0 | 3.2 | 0.00 | 0.00 | 0.00 | 51 | 1017.6 |
| 20260504003003 | 19 | 313 | 0.0 | 3.2 | 0.00 | 0.00 | 0.00 | 51 | 1017.5 |
| 20260504002503 | 19 | 307 | 0.0 | 3.2 | 0.00 | 0.00 | 0.00 | 50 | 1017.4 |
| 20260504002003 | 20 | 307 | 0.0 | 3.2 | 0.00 | 0.00 | 0.00 | 50 | 1017.4 |
| 20260504001504 | 20 | 306 | 1.6 | 1.6 | 0.00 | 0.00 | 0.00 | 46 | 1017.4 |
| 20260504001003 | 20 | 292 | 0.0 | 3.2 | 0.00 | 0.00 | 0.00 | 46 | 1017.3 |
| 20260504000504 | 21 | 73 | 0.0 | 3.2 | 0.00 | 0.00 | 0.00 | 46 | 1017.4 |
| 20260504000024 | 21 | 13 | 0.0 | 3.2 | 0.00 | 0.00 | 0.00 | 44 | 1017.3 |
| 20260503235506 | 22 | 211 | 0.0 | 3.2 | 0.00 | 0.00 | 0.00 | 43 | 1017.3 |
| 20260503235003 | 22 | 121 | 0.0 | 3.2 | 0.00 | 0.00 | 0.00 | 41 | 1017.3 |
| 20260503234516 | 22 | 63 | 0.0 | 4.8 | 0.00 | 0.00 | 0.00 | 40 | 1017.2 |
| 20260503234004 | 23 | 236 | 0.0 | 4.8 | 0.00 | 0.00 | 0.00 | 36 | 1017.2 |
| 20260503233505 | 23 | 345 | 3.2 | 4.8 | 0.00 | 0.00 | 0.00 | 35 | 1017.2 |
| 20260503233018 | 23 | 331 | 0.0 | 3.2 | 0.00 | 0.00 | 0.00 | 35 | 1017.2 |
| 20260503232507 | 23 | 336 | 1.6 | 4.8 | 0.00 | 0.00 | 0.00 | 36 | 1017.2 |
| 20260503232003 | 23 | 5 | 1.6 | 4.8 | 0.00 | 0.00 | 0.00 | 34 | 1017.2 |
| 20260503231505 | 23 | 13 | 1.6 | 6.4 | 0.00 | 0.00 | 0.00 | 33 | 1017.2 |
| 20260503231003 | 23 | 5 | 3.2 | 6.4 | 0.00 | 0.00 | 0.00 | 35 | 1017.2 |
| 20260503230503 | 23 | 292 | 1.6 | 4.8 | 0.00 | 0.00 | 0.00 | 33 | 1017.3 |
| 20260503230009 | 23 | 11 | 3.2 | 4.8 | 0.00 | 0.00 | 0.00 | 33 | 1017.3 |
| 20260503225504 | 23 | 92 | 3.2 | 6.4 | 0.00 | 0.00 | 0.00 | 31 | 1017.3 |
| 20260503225006 | 23 | 103 | 1.6 | 9.7 | 0.00 | 0.00 | 0.00 | 33 | 1017.3 |
| 20260503224514 | 23 | 323 | 4.8 | 9.7 | 0.00 | 0.00 | 0.00 | 32 | 1017.3 |
| 20260503224004 | 23 | 272 | 6.4 | 9.7 | 0.00 | 0.00 | 0.00 | 32 | 1017.3 |
| 20260503223504 | 23 | 320 | 4.8 | 16.1 | 0.00 | 0.00 | 0.00 | 31 | 1017.3 |
| 20260503223019 | 24 | 329 | 4.8 | 16.1 | 0.00 | 0.00 | 0.00 | 32 | 1017.4 |
| 20260503222504 | 24 | 348 | 3.2 | 14.5 | 0.00 | 0.00 | 0.00 | 33 | 1017.4 |
| 20260503222008 | 24 | 288 | 6.4 | 14.5 | 0.00 | 0.00 | 0.00 | 33 | 1017.3 |
| 20260503221522 | 24 | 284 | 9.7 | 12.9 | 0.00 | 0.00 | 0.00 | 31 | 1017.4 |
| 20260503221004 | 24 | 293 | 3.2 | 8.0 | 0.00 | 0.00 | 0.00 | 32 | 1017.3 |
| 20260503220504 | 23 | 263 | 1.6 | 9.7 | 0.00 | 0.00 | 0.00 | 34 | 1017.4 |
| 20260503220008 | 23 | 98 | 3.2 | 12.9 | 0.00 | 0.00 | 0.00 | 32 | 1017.4 |
| 20260503215504 | 23 | 271 | 3.2 | 12.9 | 0.00 | 0.00 | 0.00 | 32 | 1017.4 |
| 20260503215002 | 23 | 285 | 6.4 | 14.5 | 0.00 | 0.00 | 0.00 | 33 | 1017.4 |
| 20260503214511 | 23 | 286 | 8.0 | 16.1 | 0.00 | 0.00 | 0.00 | 32 | 1017.4 |
| 20260503214008 | 24 | 276 | 9.7 | 16.1 | 0.00 | 0.00 | 0.00 | 32 | 1017.4 |
| 20260503213504 | 24 | 265 | 4.8 | 11.3 | 0.00 | 0.00 | 0.00 | 32 | 1017.5 |
| 20260503213016 | 24 | 67 | 1.6 | 6.4 | 0.00 | 0.00 | 0.00 | 32 | 1017.6 |
| 20260503212507 | 24 | 31 | 1.6 | 4.8 | 0.00 | 0.00 | 0.00 | 34 | 1017.6 |
| 20260503212008 | 23 | 236 | 1.6 | 8.0 | 0.00 | 0.00 | 0.00 | 32 | 1017.7 |
| 20260503211521 | 23 | 5 | 3.2 | 12.9 | 0.00 | 0.00 | 0.00 | 31 | 1017.8 |
| 20260503211007 | 23 | 264 | 0.0 | 14.5 | 0.00 | 0.00 | 0.00 | 31 | 1017.8 |
| 20260503210511 | 24 | 322 | 6.4 | 16.1 | 0.00 | 0.00 | 0.00 | 33 | 1017.8 |
| 20260503210003 | 23 | 271 | 4.8 | 16.1 | 0.00 | 0.00 | 0.00 | 33 | 1017.7 |
| 20260503205504 | 23 | 15 | 4.8 | 17.7 | 0.00 | 0.00 | 0.00 | 31 | 1017.7 |
| 20260503205002 | 23 | 350 | 4.8 | 20.9 | 0.00 | 0.00 | 0.00 | 32 | 1017.8 |
| 20260503204510 | 23 | 330 | 3.2 | 20.9 | 0.00 | 0.00 | 0.00 | 31 | 1017.9 |
| 20260503204005 | 23 | 26 | 6.4 | 16.1 | 0.00 | 0.00 | 0.00 | 31 | 1017.9 |
| 20260503203504 | 23 | 107 | 4.8 | 16.1 | 0.00 | 0.00 | 0.00 | 33 | 1017.9 |
| 20260503203025 | 23 | 265 | 6.4 | 16.1 | 0.00 | 0.00 | 0.00 | 32 | 1018.1 |
| 20260503202506 | 23 | 307 | 6.4 | 17.7 | 0.00 | 0.00 | 0.00 | 32 | 1018.1 |
| 20260503202006 | 23 | 296 | 4.8 | 19.3 | 0.00 | 0.00 | 0.00 | 32 | 1018.1 |
| 20260503201522 | 23 | 336 | 11.3 | 19.3 | 0.00 | 0.00 | 0.00 | 33 | 1018.3 |
| 20260503201007 | 23 | 44 | 8.0 | 19.3 | 0.00 | 0.00 | 0.00 | 34 | 1018.2 |
| 20260503200509 | 23 | 84 | 1.6 | 16.1 | 0.00 | 0.00 | 0.00 | 35 | 1018.3 |
| 20260503200024 | 23 | 13 | 4.8 | 16.1 | 0.00 | 0.00 | 0.00 | 35 | 1018.4 |
| 20260503195503 | 23 | 275 | 6.4 | 20.9 | 0.00 | 0.00 | 0.00 | 34 | 1018.4 |
| 20260503195001 | 23 | 341 | 9.7 | 20.9 | 0.00 | 0.00 | 0.00 | 33 | 1018.6 |
| 20260503194513 | 23 | 24 | 8.0 | 16.1 | 0.00 | 0.00 | 0.00 | 33 | 1018.6 |
| 20260503194001 | 23 | 5 | 1.6 | 14.5 | 0.00 | 0.00 | 0.00 | 32 | 1018.7 |
| 20260503193506 | 23 | 168 | 4.8 | 16.1 | 0.00 | 0.00 | 0.00 | 33 | 1018.8 |
| 20260503193018 | 23 | 277 | 6.4 | 16.1 | 0.00 | 0.00 | 0.00 | 32 | 1019.0 |
| 20260503192503 | 23 | 348 | 6.4 | 16.1 | 0.00 | 0.00 | 0.00 | 35 | 1018.9 |
| 20260503192006 | 23 | 49 | 9.7 | 16.1 | 0.00 | 0.00 | 0.00 | 33 | 1018.9 |
| 20260503191520 | 23 | 302 | 6.4 | 17.7 | 0.00 | 0.00 | 0.00 | 32 | 1019.1 |
| 20260503191006 | 23 | 360 | 8.0 | 17.7 | 0.00 | 0.00 | 0.00 | 34 | 1019.1 |
| 20260503190507 | 23 | 59 | 4.8 | 14.5 | 0.00 | 0.00 | 0.00 | 33 | 1019.3 |
| 20260503190023 | 23 | 290 | 4.8 | 14.5 | 0.00 | 0.00 | 0.00 | 40 | 1019.4 |
| 20260503185507 | 23 | 48 | 6.4 | 14.5 | 0.00 | 0.00 | 0.00 | 35 | 1019.4 |
| 20260503185006 | 23 | 79 | 4.8 | 14.5 | 0.00 | 0.00 | 0.00 | 36 | 1019.4 |